#datetime,building,power
2022-07-29T00:00:00,pkn,9.60
2022-07-29T00:01:00,pkn,3.60
2022-07-29T00:02:00,pkn,6.00
2022-07-29T00:03:00,pkn,2.40
2022-07-29T00:04:00,pkn,1.20
2022-07-29T00:06:00,pkn,1.20
2022-07-29T00:09:00,pkn,2.40
2022-07-29T00:11:00,pkn,1.20
2022-07-29T00:13:00,pkn,1.20
2022-07-29T00:15:00,pkn,2.40
2022-07-29T00:17:00,pkn,1.20
2022-07-29T00:20:00,pkn,4.80
2022-07-29T00:22:00,pkn,9.60
2022-07-29T00:23:00,pkn,3.60
2022-07-29T00:25:00,pkn,9.60
2022-07-29T00:26:00,pkn,4.80
2022-07-29T00:27:00,pkn,4.80
2022-07-29T00:29:00,pkn,9.60
2022-07-29T00:30:00,pkn,2.40
2022-07-29T00:32:00,pkn,1.20
2022-07-29T00:34:00,pkn,1.20
2022-07-29T00:36:00,pkn,1.20
2022-07-29T00:37:00,pkn,1.20
2022-07-29T00:39:00,pkn,1.20
2022-07-29T00:41:00,pkn,1.20
2022-07-29T00:43:00,pkn,1.20
2022-07-29T00:45:00,pkn,1.20
2022-07-29T00:47:00,pkn,1.20
2022-07-29T00:49:00,pkn,1.20
2022-07-29T00:51:00,pkn,1.20
2022-07-29T00:53:00,pkn,1.20
2022-07-29T00:56:00,pkn,1.20
2022-07-29T00:57:00,pkn,1.20
2022-07-29T00:59:00,pkn,1.20
2022-07-29T01:01:00,pkn,7.20
2022-07-29T01:02:00,pkn,4.80
2022-07-29T01:04:00,pkn,9.60
2022-07-29T01:06:00,pkn,9.60
2022-07-29T01:07:00,pkn,3.60
2022-07-29T01:09:00,pkn,4.80
2022-07-29T01:11:00,pkn,1.20
2022-07-29T01:13:00,pkn,1.20
2022-07-29T01:15:00,pkn,2.40
2022-07-29T01:18:00,pkn,1.20
2022-07-29T01:19:00,pkn,1.20
2022-07-29T01:22:00,pkn,1.20
2022-07-29T01:23:00,pkn,1.20
2022-07-29T01:25:00,pkn,1.20
2022-07-29T01:28:00,pkn,1.20
2022-07-29T01:30:00,pkn,2.40
2022-07-29T01:33:00,pkn,2.40
2022-07-29T01:35:00,pkn,1.20
2022-07-29T01:38:00,pkn,2.40
2022-07-29T01:40:00,pkn,1.20
2022-07-29T01:42:00,pkn,1.20
2022-07-29T01:43:00,pkn,1.20
2022-07-29T01:46:00,pkn,2.40
2022-07-29T01:48:00,pkn,1.20
2022-07-29T01:50:00,pkn,1.20
2022-07-29T01:52:00,pkn,1.20
2022-07-29T01:54:00,pkn,9.60
2022-07-29T01:56:00,pkn,9.60
2022-07-29T01:58:00,pkn,9.60
2022-07-29T01:59:00,pkn,4.80
2022-07-29T02:01:00,pkn,9.60
2022-07-29T02:04:00,pkn,1.20
2022-07-29T02:06:00,pkn,1.20
2022-07-29T02:08:00,pkn,1.20
2022-07-29T02:09:00,pkn,1.20
2022-07-29T02:11:00,pkn,1.20
2022-07-29T02:12:00,pkn,1.20
2022-07-29T02:15:00,pkn,1.20
2022-07-29T02:16:00,pkn,1.20
2022-07-29T02:18:00,pkn,1.20
2022-07-29T02:21:00,pkn,1.20
2022-07-29T02:23:00,pkn,1.20
2022-07-29T02:25:00,pkn,1.20
2022-07-29T02:27:00,pkn,1.20
2022-07-29T02:29:00,pkn,1.20
2022-07-29T02:31:00,pkn,2.40
2022-07-29T02:33:00,pkn,1.20
2022-07-29T02:35:00,pkn,1.20
2022-07-29T02:38:00,pkn,1.20
2022-07-29T02:39:00,pkn,1.20
2022-07-29T02:41:00,pkn,1.20
2022-07-29T02:43:00,pkn,1.20
2022-07-29T02:45:00,pkn,1.20
2022-07-29T02:47:00,pkn,1.20
2022-07-29T02:49:00,pkn,1.20
2022-07-29T02:51:00,pkn,1.20
2022-07-29T02:53:00,pkn,1.20
2022-07-29T02:56:00,pkn,1.20
2022-07-29T02:58:00,pkn,1.20
2022-07-29T02:59:00,pkn,1.20
2022-07-29T03:01:00,pkn,1.20
2022-07-29T03:03:00,pkn,1.20
2022-07-29T03:05:00,pkn,1.20
2022-07-29T03:07:00,pkn,1.20
2022-07-29T03:09:00,pkn,1.20
2022-07-29T03:11:00,pkn,1.20
2022-07-29T03:12:00,pkn,1.20
2022-07-29T03:14:00,pkn,1.20
2022-07-29T03:16:00,pkn,6.00
2022-07-29T03:17:00,pkn,6.00
2022-07-29T03:19:00,pkn,8.40
2022-07-29T03:20:00,pkn,4.80
2022-07-29T03:22:00,pkn,10.80
2022-07-29T03:24:00,pkn,3.60
2022-07-29T03:26:00,pkn,1.20
2022-07-29T03:28:00,pkn,1.20
2022-07-29T03:29:00,pkn,1.20
2022-07-29T03:32:00,pkn,1.20
2022-07-29T03:34:00,pkn,2.40
2022-07-29T03:36:00,pkn,1.20
2022-07-29T03:39:00,pkn,1.20
2022-07-29T03:41:00,pkn,1.20
2022-07-29T03:43:00,pkn,1.20
2022-07-29T03:44:00,pkn,1.20
2022-07-29T03:46:00,pkn,1.20
2022-07-29T03:48:00,pkn,1.20
2022-07-29T03:50:00,pkn,1.20
2022-07-29T03:52:00,pkn,1.20
2022-07-29T03:55:00,pkn,1.20
2022-07-29T03:56:00,pkn,1.20
2022-07-29T03:58:00,pkn,1.20
2022-07-29T04:00:00,pkn,1.20
2022-07-29T04:02:00,pkn,1.20
2022-07-29T04:04:00,pkn,1.20
2022-07-29T04:06:00,pkn,1.20
2022-07-29T04:08:00,pkn,1.20
2022-07-29T04:10:00,pkn,1.20
2022-07-29T04:12:00,pkn,1.20
2022-07-29T04:14:00,pkn,1.20
2022-07-29T04:17:00,pkn,1.20
2022-07-29T04:19:00,pkn,1.20
2022-07-29T04:21:00,pkn,1.20
2022-07-29T04:23:00,pkn,1.20
2022-07-29T04:24:00,pkn,1.20
2022-07-29T04:27:00,pkn,1.20
2022-07-29T04:29:00,pkn,1.20
2022-07-29T04:31:00,pkn,1.20
2022-07-29T04:32:00,pkn,1.20
2022-07-29T04:34:00,pkn,1.20
2022-07-29T04:36:00,pkn,1.20
2022-07-29T04:39:00,pkn,2.40
2022-07-29T04:42:00,pkn,1.20
2022-07-29T04:44:00,pkn,1.20
2022-07-29T04:45:00,pkn,1.20
2022-07-29T04:48:00,pkn,1.20
2022-07-29T04:50:00,pkn,1.20
2022-07-29T04:52:00,pkn,1.20
2022-07-29T04:53:00,pkn,1.20
2022-07-29T04:55:00,pkn,1.20
2022-07-29T04:56:00,pkn,1.20
2022-07-29T04:57:00,pkn,1.20
2022-07-29T04:59:00,pkn,2.40
2022-07-29T05:01:00,pkn,1.20
2022-07-29T05:02:00,pkn,1.20
2022-07-29T05:04:00,pkn,1.20
2022-07-29T05:07:00,pkn,1.20
2022-07-29T05:09:00,pkn,2.40
2022-07-29T05:11:00,pkn,1.20
2022-07-29T05:13:00,pkn,2.40
2022-07-29T05:14:00,pkn,6.00
2022-07-29T05:16:00,pkn,9.60
2022-07-29T05:18:00,pkn,8.40
2022-07-29T05:20:00,pkn,9.60
2022-07-29T05:22:00,pkn,1.20
2022-07-29T05:23:00,pkn,1.20
2022-07-29T05:25:00,pkn,1.20
2022-07-29T05:27:00,pkn,1.20
2022-07-29T05:28:00,pkn,1.20
2022-07-29T05:30:00,pkn,1.20
2022-07-29T05:32:00,pkn,1.20
2022-07-29T05:33:00,pkn,1.20
2022-07-29T05:35:00,pkn,1.20
2022-07-29T05:37:00,pkn,1.20
2022-07-29T05:39:00,pkn,1.20
2022-07-29T05:40:00,pkn,1.20
2022-07-29T05:41:00,pkn,1.20
2022-07-29T05:42:00,pkn,1.20
2022-07-29T05:43:00,pkn,1.20
2022-07-29T05:46:00,pkn,1.20
2022-07-29T05:47:00,pkn,1.20
2022-07-29T05:49:00,pkn,1.20
2022-07-29T05:50:00,pkn,1.20
2022-07-29T05:52:00,pkn,1.20
2022-07-29T05:55:00,pkn,1.20
2022-07-29T05:57:00,pkn,1.20
2022-07-29T05:58:00,pkn,1.20
2022-07-29T06:01:00,pkn,1.20
2022-07-29T06:03:00,pkn,1.20
2022-07-29T06:06:00,pkn,1.20
2022-07-29T06:08:00,pkn,1.20
2022-07-29T06:09:00,pkn,1.20
2022-07-29T06:11:00,pkn,1.20
2022-07-29T06:14:00,pkn,1.20
2022-07-29T06:15:00,pkn,1.20
2022-07-29T06:17:00,pkn,1.20
2022-07-29T06:20:00,pkn,1.20
2022-07-29T06:22:00,pkn,1.20
2022-07-29T06:24:00,pkn,1.20
2022-07-29T06:25:00,pkn,1.20
2022-07-29T06:28:00,pkn,2.40
2022-07-29T06:29:00,pkn,6.00
2022-07-29T06:31:00,pkn,8.40
2022-07-29T06:32:00,pkn,4.80
2022-07-29T06:34:00,pkn,8.40
2022-07-29T06:35:00,pkn,4.80
2022-07-29T06:37:00,pkn,1.20
2022-07-29T06:39:00,pkn,1.20
2022-07-29T06:41:00,pkn,1.20
2022-07-29T06:43:00,pkn,1.20
2022-07-29T06:45:00,pkn,1.20
2022-07-29T06:47:00,pkn,1.20
2022-07-29T06:49:00,pkn,1.20
2022-07-29T06:50:00,pkn,1.20
2022-07-29T06:52:00,pkn,1.20
2022-07-29T06:55:00,pkn,2.40
2022-07-29T06:56:00,pkn,4.80
2022-07-29T06:57:00,pkn,1.20
2022-07-29T06:58:00,pkn,7.20
2022-07-29T06:59:00,pkn,1.20
2022-07-29T07:00:00,pkn,9.60
2022-07-29T07:02:00,pkn,8.40
2022-07-29T07:03:00,pkn,1.20
2022-07-29T07:04:00,pkn,7.20
2022-07-29T07:05:00,pkn,1.20
2022-07-29T07:06:00,pkn,8.40
2022-07-29T07:07:00,pkn,4.80
2022-07-29T07:09:00,pkn,6.00
2022-07-29T07:12:00,pkn,1.20
2022-07-29T07:14:00,pkn,1.20
2022-07-29T07:17:00,pkn,1.20
2022-07-29T07:18:00,pkn,1.20
2022-07-29T07:20:00,pkn,1.20
2022-07-29T07:22:00,pkn,1.20
2022-07-29T07:23:00,pkn,1.20
2022-07-29T07:24:00,pkn,1.20
2022-07-29T07:26:00,pkn,1.20
2022-07-29T07:28:00,pkn,2.40
2022-07-29T07:30:00,pkn,9.60
2022-07-29T07:32:00,pkn,9.60
2022-07-29T07:33:00,pkn,4.80
2022-07-29T07:34:00,pkn,4.80
2022-07-29T07:36:00,pkn,9.60
2022-07-29T07:37:00,pkn,1.20
2022-07-29T07:38:00,pkn,7.20
2022-07-29T07:39:00,pkn,6.00
2022-07-29T07:41:00,pkn,8.40
2022-07-29T07:42:00,pkn,1.20
2022-07-29T07:43:00,pkn,1.20
2022-07-29T07:45:00,pkn,1.20
2022-07-29T07:47:00,pkn,1.20
2022-07-29T07:50:00,pkn,1.20
2022-07-29T07:52:00,pkn,1.20
2022-07-29T07:54:00,pkn,1.20
2022-07-29T07:56:00,pkn,1.20
2022-07-29T07:58:00,pkn,2.40
2022-07-29T08:00:00,pkn,1.20
2022-07-29T08:02:00,pkn,1.20
2022-07-29T08:05:00,pkn,4.80
2022-07-29T08:07:00,pkn,8.40
2022-07-29T08:08:00,pkn,6.00
2022-07-29T08:10:00,pkn,8.40
2022-07-29T08:12:00,pkn,9.60
2022-07-29T08:13:00,pkn,3.60
2022-07-29T08:15:00,pkn,3.60
2022-07-29T08:17:00,pkn,1.20
2022-07-29T08:18:00,pkn,1.20
2022-07-29T08:21:00,pkn,1.20
2022-07-29T08:23:00,pkn,1.20
2022-07-29T08:25:00,pkn,2.40
2022-07-29T08:27:00,pkn,1.20
2022-07-29T08:29:00,pkn,1.20
2022-07-29T08:31:00,pkn,1.20
2022-07-29T08:33:00,pkn,1.20
2022-07-29T08:36:00,pkn,6.00
2022-07-29T08:37:00,pkn,6.00
2022-07-29T08:39:00,pkn,8.40
2022-07-29T08:40:00,pkn,4.80
2022-07-29T08:42:00,pkn,8.40
2022-07-29T08:44:00,pkn,9.60
2022-07-29T08:46:00,pkn,9.60
2022-07-29T08:47:00,pkn,4.80
2022-07-29T08:49:00,pkn,8.40
2022-07-29T08:51:00,pkn,9.60
2022-07-29T08:53:00,pkn,4.80
2022-07-29T08:54:00,pkn,1.20
2022-07-29T08:56:00,pkn,1.20
2022-07-29T08:59:00,pkn,1.20
2022-07-29T09:01:00,pkn,1.20
2022-07-29T09:03:00,pkn,2.40
2022-07-29T09:05:00,pkn,1.20
2022-07-29T09:07:00,pkn,1.20
2022-07-29T09:09:00,pkn,1.20
2022-07-29T09:11:00,pkn,1.20
2022-07-29T09:14:00,pkn,1.20
2022-07-29T09:16:00,pkn,7.20
2022-07-29T09:18:00,pkn,9.60
2022-07-29T09:19:00,pkn,3.60
2022-07-29T09:20:00,pkn,1.20
2022-07-29T09:21:00,pkn,8.40
2022-07-29T09:22:00,pkn,1.20
2022-07-29T09:23:00,pkn,7.20
2022-07-29T09:24:00,pkn,4.80
2022-07-29T09:25:00,pkn,3.60
2022-07-29T09:26:00,pkn,1.20
2022-07-29T09:30:00,pkn,1.20
2022-07-29T09:31:00,pkn,1.20
2022-07-29T09:33:00,pkn,1.20
2022-07-29T09:35:00,pkn,1.20
2022-07-29T09:37:00,pkn,1.20
2022-07-29T09:41:00,pkn,1.20
2022-07-29T09:42:00,pkn,1.20
2022-07-29T09:44:00,pkn,1.20
2022-07-29T09:46:00,pkn,1.20
2022-07-29T09:49:00,pkn,1.20
2022-07-29T09:51:00,pkn,1.20
2022-07-29T09:53:00,pkn,1.20
2022-07-29T09:55:00,pkn,1.20
2022-07-29T09:58:00,pkn,1.20
2022-07-29T09:59:00,pkn,1.20
2022-07-29T10:01:00,pkn,1.20
2022-07-29T10:03:00,pkn,3.60
2022-07-29T10:05:00,pkn,9.60
2022-07-29T10:06:00,pkn,4.80
2022-07-29T10:08:00,pkn,9.60
2022-07-29T10:10:00,pkn,8.40
2022-07-29T10:12:00,pkn,4.80
2022-07-29T10:15:00,pkn,1.20
2022-07-29T10:17:00,pkn,1.20
2022-07-29T10:19:00,pkn,1.20
2022-07-29T10:21:00,pkn,1.20
2022-07-29T10:24:00,pkn,1.20
2022-07-29T10:27:00,pkn,1.20
2022-07-29T10:29:00,pkn,1.20
2022-07-29T10:30:00,pkn,1.20
2022-07-29T10:32:00,pkn,1.20
2022-07-29T10:34:00,pkn,1.20
2022-07-29T10:37:00,pkn,1.20
2022-07-29T10:38:00,pkn,1.20
2022-07-29T10:40:00,pkn,1.20
2022-07-29T10:43:00,pkn,1.20
2022-07-29T10:44:00,pkn,1.20
2022-07-29T10:46:00,pkn,1.20
2022-07-29T10:47:00,pkn,1.20
2022-07-29T10:50:00,pkn,1.20
2022-07-29T10:52:00,pkn,1.20
2022-07-29T10:53:00,pkn,1.20
2022-07-29T10:55:00,pkn,1.20
2022-07-29T10:58:00,pkn,1.20
2022-07-29T10:59:00,pkn,1.20
2022-07-29T11:01:00,pkn,1.20
2022-07-29T11:03:00,pkn,1.20
2022-07-29T11:05:00,pkn,1.20
2022-07-29T11:07:00,pkn,1.20
2022-07-29T11:09:00,pkn,1.20
2022-07-29T11:11:00,pkn,1.20
2022-07-29T11:14:00,pkn,1.20
2022-07-29T11:16:00,pkn,6.00
2022-07-29T11:18:00,pkn,9.60
2022-07-29T11:20:00,pkn,9.60
2022-07-29T11:22:00,pkn,8.40
2022-07-29T11:24:00,pkn,2.40
2022-07-29T11:26:00,pkn,1.20
2022-07-29T11:28:00,pkn,1.20
2022-07-29T11:30:00,pkn,1.20
2022-07-29T11:32:00,pkn,1.20
2022-07-29T11:35:00,pkn,1.20
2022-07-29T11:37:00,pkn,1.20
2022-07-29T11:38:00,pkn,1.20
2022-07-29T11:41:00,pkn,1.20
2022-07-29T11:42:00,pkn,1.20
2022-07-29T11:46:00,pkn,1.20
2022-07-29T11:48:00,pkn,1.20
2022-07-29T11:50:00,pkn,1.20
2022-07-29T11:52:00,pkn,1.20
2022-07-29T11:54:00,pkn,1.20
2022-07-29T11:56:00,pkn,1.20
2022-07-29T11:57:00,pkn,1.20
2022-07-29T11:59:00,pkn,1.20
2022-07-29T12:01:00,pkn,1.20
2022-07-29T12:03:00,pkn,1.20
2022-07-29T12:05:00,pkn,1.20
2022-07-29T12:07:00,pkn,1.20
2022-07-29T12:10:00,pkn,1.20
2022-07-29T12:11:00,pkn,1.20
2022-07-29T12:13:00,pkn,1.20
2022-07-29T12:15:00,pkn,1.20
2022-07-29T12:16:00,pkn,1.20
2022-07-29T12:19:00,pkn,1.20
2022-07-29T12:21:00,pkn,1.20
2022-07-29T12:23:00,pkn,2.40
2022-07-29T12:26:00,pkn,1.20
2022-07-29T12:28:00,pkn,2.40
2022-07-29T12:30:00,pkn,1.20
2022-07-29T12:32:00,pkn,1.20
2022-07-29T12:34:00,pkn,1.20
2022-07-29T12:36:00,pkn,1.20
2022-07-29T12:37:00,pkn,1.20
2022-07-29T12:39:00,pkn,1.20
2022-07-29T12:41:00,pkn,1.20
2022-07-29T12:44:00,pkn,1.20
2022-07-29T12:46:00,pkn,1.20
2022-07-29T12:47:00,pkn,1.20
2022-07-29T12:49:00,pkn,1.20
2022-07-29T12:52:00,pkn,7.20
2022-07-29T12:54:00,pkn,9.60
2022-07-29T12:56:00,pkn,8.40
2022-07-29T12:57:00,pkn,6.00
2022-07-29T12:59:00,pkn,8.40
2022-07-29T13:02:00,pkn,1.20
2022-07-29T13:04:00,pkn,2.40
2022-07-29T13:07:00,pkn,1.20
2022-07-29T13:09:00,pkn,1.20
2022-07-29T13:11:00,pkn,1.20
2022-07-29T13:13:00,pkn,1.20
2022-07-29T13:15:00,pkn,1.20
2022-07-29T13:17:00,pkn,1.20
2022-07-29T13:19:00,pkn,1.20
2022-07-29T13:21:00,pkn,1.20
2022-07-29T13:23:00,pkn,1.20
2022-07-29T13:25:00,pkn,1.20
2022-07-29T13:27:00,pkn,1.20
2022-07-29T13:29:00,pkn,1.20
2022-07-29T13:32:00,pkn,1.20
2022-07-29T13:34:00,pkn,1.20
2022-07-29T13:36:00,pkn,1.20
2022-07-29T13:37:00,pkn,1.20
2022-07-29T13:39:00,pkn,1.20
2022-07-29T13:42:00,pkn,1.20
2022-07-29T13:44:00,pkn,1.20
2022-07-29T13:45:00,pkn,1.20
2022-07-29T13:47:00,pkn,1.20
2022-07-29T13:49:00,pkn,1.20
2022-07-29T13:51:00,pkn,1.20
2022-07-29T13:52:00,pkn,1.20
2022-07-29T13:54:00,pkn,3.60
2022-07-29T13:56:00,pkn,9.60
2022-07-29T13:58:00,pkn,9.60
2022-07-29T14:00:00,pkn,9.60
2022-07-29T14:02:00,pkn,1.20
2022-07-29T14:04:00,pkn,1.20
2022-07-29T14:05:00,pkn,1.20
2022-07-29T14:08:00,pkn,2.40
2022-07-29T14:10:00,pkn,1.20
2022-07-29T14:12:00,pkn,1.20
2022-07-29T14:14:00,pkn,2.40
2022-07-29T14:16:00,pkn,1.20
2022-07-29T14:18:00,pkn,1.20
2022-07-29T14:19:00,pkn,1.20
2022-07-29T14:21:00,pkn,1.20
2022-07-29T14:23:00,pkn,1.20
2022-07-29T14:26:00,pkn,2.40
2022-07-29T14:28:00,pkn,1.20
2022-07-29T14:31:00,pkn,1.20
2022-07-29T14:32:00,pkn,1.20
2022-07-29T14:34:00,pkn,1.20
2022-07-29T14:37:00,pkn,2.40
2022-07-29T14:39:00,pkn,3.60
2022-07-29T14:41:00,pkn,9.60
2022-07-29T14:42:00,pkn,3.60
2022-07-29T14:44:00,pkn,9.60
2022-07-29T14:45:00,pkn,6.00
2022-07-29T14:47:00,pkn,8.40
2022-07-29T14:49:00,pkn,7.20
2022-07-29T14:51:00,pkn,1.20
2022-07-29T14:53:00,pkn,1.20
2022-07-29T14:55:00,pkn,1.20
2022-07-29T14:56:00,pkn,1.20
2022-07-29T14:58:00,pkn,1.20
2022-07-29T15:01:00,pkn,1.20
2022-07-29T15:02:00,pkn,1.20
2022-07-29T15:04:00,pkn,1.20
2022-07-29T15:05:00,pkn,1.20
2022-07-29T15:07:00,pkn,1.20
2022-07-29T15:09:00,pkn,1.20
2022-07-29T15:12:00,pkn,1.20
2022-07-29T15:13:00,pkn,1.20
2022-07-29T15:15:00,pkn,1.20
2022-07-29T15:17:00,pkn,2.40
2022-07-29T15:19:00,pkn,1.20
2022-07-29T15:21:00,pkn,1.20
2022-07-29T15:23:00,pkn,7.20
2022-07-29T15:24:00,pkn,3.60
2022-07-29T15:26:00,pkn,10.80
2022-07-29T15:28:00,pkn,9.60
2022-07-29T15:30:00,pkn,9.60
2022-07-29T15:32:00,pkn,8.40
2022-07-29T15:33:00,pkn,3.60
2022-07-29T15:34:00,pkn,1.20
2022-07-29T15:36:00,pkn,1.20
2022-07-29T15:38:00,pkn,1.20
2022-07-29T15:39:00,pkn,1.20
2022-07-29T15:41:00,pkn,1.20
2022-07-29T15:43:00,pkn,1.20
2022-07-29T15:45:00,pkn,1.20
2022-07-29T15:47:00,pkn,7.20
2022-07-29T15:48:00,pkn,6.00
2022-07-29T15:50:00,pkn,9.60
2022-07-29T15:52:00,pkn,8.40
2022-07-29T15:54:00,pkn,9.60
2022-07-29T15:56:00,pkn,4.80
2022-07-29T15:59:00,pkn,1.20
2022-07-29T16:01:00,pkn,1.20
2022-07-29T16:02:00,pkn,1.20
2022-07-29T16:05:00,pkn,1.20
2022-07-29T16:07:00,pkn,1.20
2022-07-29T16:08:00,pkn,1.20
2022-07-29T16:11:00,pkn,1.20
2022-07-29T16:12:00,pkn,1.20
2022-07-29T16:13:00,pkn,1.20
2022-07-29T16:16:00,pkn,1.20
2022-07-29T16:18:00,pkn,1.20
2022-07-29T16:20:00,pkn,1.20
2022-07-29T16:22:00,pkn,1.20
2022-07-29T16:23:00,pkn,1.20
2022-07-29T16:25:00,pkn,9.60
2022-07-29T16:26:00,pkn,4.80
2022-07-29T16:28:00,pkn,8.40
2022-07-29T16:29:00,pkn,6.00
2022-07-29T16:31:00,pkn,8.40
2022-07-29T16:33:00,pkn,1.20
2022-07-29T16:35:00,pkn,1.20
2022-07-29T16:37:00,pkn,1.20
2022-07-29T16:39:00,pkn,2.40
2022-07-29T16:42:00,pkn,1.20
2022-07-29T16:43:00,pkn,1.20
2022-07-29T16:45:00,pkn,3.60
2022-07-29T16:46:00,pkn,1.20
2022-07-29T16:47:00,pkn,8.40
2022-07-29T16:49:00,pkn,9.60
2022-07-29T16:50:00,pkn,4.80
2022-07-29T16:52:00,pkn,8.40
2022-07-29T16:54:00,pkn,9.60
2022-07-29T16:56:00,pkn,9.60
2022-07-29T16:57:00,pkn,3.60
2022-07-29T16:59:00,pkn,1.20
2022-07-29T17:00:00,pkn,1.20
2022-07-29T17:02:00,pkn,1.20
2022-07-29T17:04:00,pkn,1.20
2022-07-29T17:06:00,pkn,1.20
2022-07-29T17:08:00,pkn,1.20
2022-07-29T17:10:00,pkn,1.20
2022-07-29T17:12:00,pkn,1.20
2022-07-29T17:14:00,pkn,1.20
2022-07-29T17:17:00,pkn,1.20
2022-07-29T17:19:00,pkn,1.20
2022-07-29T17:21:00,pkn,1.20
2022-07-29T17:22:00,pkn,1.20
2022-07-29T17:24:00,pkn,1.20
2022-07-29T17:26:00,pkn,8.40
2022-07-29T17:28:00,pkn,8.40
2022-07-29T17:29:00,pkn,4.80
2022-07-29T17:30:00,pkn,3.60
2022-07-29T17:32:00,pkn,9.60
2022-07-29T17:34:00,pkn,1.20
2022-07-29T17:36:00,pkn,1.20
2022-07-29T17:37:00,pkn,1.20
2022-07-29T17:39:00,pkn,1.20
2022-07-29T17:42:00,pkn,1.20
2022-07-29T17:44:00,pkn,1.20
2022-07-29T17:45:00,pkn,1.20
2022-07-29T17:47:00,pkn,1.20
2022-07-29T17:49:00,pkn,1.20
2022-07-29T17:52:00,pkn,1.20
2022-07-29T17:53:00,pkn,1.20
2022-07-29T17:55:00,pkn,1.20
2022-07-29T17:57:00,pkn,1.20
2022-07-29T17:59:00,pkn,1.20
2022-07-29T18:01:00,pkn,1.20
2022-07-29T18:03:00,pkn,1.20
2022-07-29T18:05:00,pkn,1.20
2022-07-29T18:07:00,pkn,1.20
2022-07-29T18:09:00,pkn,1.20
2022-07-29T18:10:00,pkn,1.20
2022-07-29T18:12:00,pkn,1.20
2022-07-29T18:14:00,pkn,1.20
2022-07-29T18:16:00,pkn,1.20
2022-07-29T18:17:00,pkn,1.20
2022-07-29T18:18:00,pkn,1.20
2022-07-29T18:19:00,pkn,1.20
2022-07-29T18:20:00,pkn,8.40
2022-07-29T18:21:00,pkn,4.80
2022-07-29T18:23:00,pkn,9.60
2022-07-29T18:25:00,pkn,8.40
2022-07-29T18:26:00,pkn,4.80
2022-07-29T18:28:00,pkn,4.80
2022-07-29T18:29:00,pkn,1.20
2022-07-29T18:31:00,pkn,1.20
2022-07-29T18:33:00,pkn,1.20
2022-07-29T18:35:00,pkn,1.20
2022-07-29T18:37:00,pkn,1.20
2022-07-29T18:39:00,pkn,1.20
2022-07-29T18:41:00,pkn,1.20
2022-07-29T18:43:00,pkn,1.20
2022-07-29T18:45:00,pkn,1.20
2022-07-29T18:48:00,pkn,1.20
2022-07-29T18:50:00,pkn,1.20
2022-07-29T18:52:00,pkn,1.20
2022-07-29T18:54:00,pkn,1.20
2022-07-29T18:56:00,pkn,1.20
2022-07-29T18:58:00,pkn,1.20
2022-07-29T19:00:00,pkn,1.20
2022-07-29T19:03:00,pkn,1.20
2022-07-29T19:04:00,pkn,1.20
2022-07-29T19:07:00,pkn,1.20
2022-07-29T19:09:00,pkn,1.20
2022-07-29T19:11:00,pkn,1.20
2022-07-29T19:14:00,pkn,1.20
2022-07-29T19:16:00,pkn,1.20
2022-07-29T19:17:00,pkn,1.20
2022-07-29T19:19:00,pkn,1.20
2022-07-29T19:22:00,pkn,1.20
2022-07-29T19:23:00,pkn,1.20
2022-07-29T19:26:00,pkn,1.20
2022-07-29T19:27:00,pkn,1.20
2022-07-29T19:29:00,pkn,1.20
2022-07-29T19:31:00,pkn,1.20
2022-07-29T19:33:00,pkn,1.20
2022-07-29T19:35:00,pkn,1.20
2022-07-29T19:37:00,pkn,1.20
2022-07-29T19:39:00,pkn,1.20
2022-07-29T19:40:00,pkn,4.80
2022-07-29T19:41:00,pkn,4.80
2022-07-29T19:43:00,pkn,9.60
2022-07-29T19:45:00,pkn,9.60
2022-07-29T19:47:00,pkn,7.20
2022-07-29T19:50:00,pkn,1.20
2022-07-29T19:51:00,pkn,1.20
2022-07-29T19:53:00,pkn,1.20
2022-07-29T19:55:00,pkn,1.20
2022-07-29T19:58:00,pkn,1.20
2022-07-29T19:59:00,pkn,1.20
2022-07-29T20:02:00,pkn,1.20
2022-07-29T20:03:00,pkn,1.20
2022-07-29T20:05:00,pkn,1.20
2022-07-29T20:07:00,pkn,1.20
2022-07-29T20:09:00,pkn,1.20
2022-07-29T20:12:00,pkn,1.20
2022-07-29T20:15:00,pkn,1.20
2022-07-29T20:17:00,pkn,1.20
2022-07-29T20:19:00,pkn,1.20
2022-07-29T20:21:00,pkn,1.20
2022-07-29T20:23:00,pkn,1.20
2022-07-29T20:25:00,pkn,1.20
2022-07-29T20:26:00,pkn,1.20
2022-07-29T20:28:00,pkn,1.20
2022-07-29T20:30:00,pkn,1.20
2022-07-29T20:32:00,pkn,1.20
2022-07-29T20:34:00,pkn,1.20
2022-07-29T20:36:00,pkn,1.20
2022-07-29T20:38:00,pkn,1.20
2022-07-29T20:39:00,pkn,1.20
2022-07-29T20:41:00,pkn,1.20
2022-07-29T20:42:00,pkn,1.20
2022-07-29T20:43:00,pkn,1.20
2022-07-29T20:45:00,pkn,1.20
2022-07-29T20:47:00,pkn,1.20
2022-07-29T20:49:00,pkn,2.40
2022-07-29T20:50:00,pkn,1.20
2022-07-29T20:52:00,pkn,1.20
2022-07-29T20:53:00,pkn,1.20
2022-07-29T20:55:00,pkn,3.60
2022-07-29T20:56:00,pkn,2.40
2022-07-29T20:58:00,pkn,3.60
2022-07-29T21:00:00,pkn,7.20
2022-07-29T21:02:00,pkn,10.80
2022-07-29T21:04:00,pkn,9.60
2022-07-29T21:06:00,pkn,9.60
2022-07-29T21:08:00,pkn,4.80
2022-07-29T21:10:00,pkn,2.40
2022-07-29T21:12:00,pkn,2.40
2022-07-29T21:14:00,pkn,1.20
2022-07-29T21:16:00,pkn,1.20
2022-07-29T21:17:00,pkn,1.20
2022-07-29T21:18:00,pkn,1.20
2022-07-29T21:21:00,pkn,2.40
2022-07-29T21:23:00,pkn,1.20
2022-07-29T21:24:00,pkn,1.20
2022-07-29T21:25:00,pkn,2.40
2022-07-29T21:27:00,pkn,1.20
2022-07-29T21:28:00,pkn,1.20
2022-07-29T21:30:00,pkn,1.20
2022-07-29T21:31:00,pkn,1.20
2022-07-29T21:33:00,pkn,1.20
2022-07-29T21:35:00,pkn,2.40
2022-07-29T21:37:00,pkn,1.20
2022-07-29T21:39:00,pkn,2.40
2022-07-29T21:41:00,pkn,1.20
2022-07-29T21:42:00,pkn,1.20
2022-07-29T21:44:00,pkn,8.40
2022-07-29T21:45:00,pkn,6.00
2022-07-29T21:46:00,pkn,4.80
2022-07-29T21:48:00,pkn,9.60
2022-07-29T21:49:00,pkn,6.00
2022-07-29T21:51:00,pkn,2.40
2022-07-29T21:53:00,pkn,2.40
2022-07-29T21:55:00,pkn,1.20
2022-07-29T21:56:00,pkn,1.20
2022-07-29T21:58:00,pkn,1.20
2022-07-29T22:00:00,pkn,2.40
2022-07-29T22:02:00,pkn,1.20
2022-07-29T22:03:00,pkn,1.20
2022-07-29T22:05:00,pkn,1.20
2022-07-29T22:07:00,pkn,2.40
2022-07-29T22:10:00,pkn,6.00
2022-07-29T22:11:00,pkn,4.80
2022-07-29T22:13:00,pkn,9.60
2022-07-29T22:14:00,pkn,6.00
2022-07-29T22:16:00,pkn,9.60
2022-07-29T22:17:00,pkn,4.80
2022-07-29T22:19:00,pkn,7.20
2022-07-29T22:21:00,pkn,2.40
2022-07-29T22:23:00,pkn,1.20
2022-07-29T22:25:00,pkn,2.40
2022-07-29T22:27:00,pkn,1.20
2022-07-29T22:28:00,pkn,1.20
2022-07-29T22:29:00,pkn,1.20
2022-07-29T22:31:00,pkn,1.20
2022-07-29T22:32:00,pkn,1.20
2022-07-29T22:33:00,pkn,1.20
2022-07-29T22:35:00,pkn,1.20
2022-07-29T22:37:00,pkn,1.20
2022-07-29T22:38:00,pkn,1.20
2022-07-29T22:40:00,pkn,1.20
2022-07-29T22:41:00,pkn,1.20
2022-07-29T22:43:00,pkn,1.20
2022-07-29T22:45:00,pkn,2.40
2022-07-29T22:47:00,pkn,1.20
2022-07-29T22:49:00,pkn,1.20
2022-07-29T22:50:00,pkn,1.20
2022-07-29T22:52:00,pkn,1.20
2022-07-29T22:55:00,pkn,1.20
2022-07-29T22:57:00,pkn,2.40
2022-07-29T22:59:00,pkn,7.20
2022-07-29T23:01:00,pkn,9.60
2022-07-29T23:03:00,pkn,9.60
2022-07-29T23:04:00,pkn,4.80
2022-07-29T23:06:00,pkn,6.00
2022-07-29T23:08:00,pkn,1.20
2022-07-29T23:10:00,pkn,1.20
2022-07-29T23:11:00,pkn,1.20
2022-07-29T23:14:00,pkn,1.20
2022-07-29T23:15:00,pkn,1.20
2022-07-29T23:17:00,pkn,1.20
2022-07-29T23:18:00,pkn,1.20
2022-07-29T23:20:00,pkn,1.20
2022-07-29T23:23:00,pkn,2.40
2022-07-29T23:26:00,pkn,1.20
2022-07-29T23:27:00,pkn,1.20
2022-07-29T23:29:00,pkn,1.20
2022-07-29T23:31:00,pkn,1.20
2022-07-29T23:33:00,pkn,1.20
2022-07-29T23:35:00,pkn,1.20
2022-07-29T23:37:00,pkn,1.20
2022-07-29T23:38:00,pkn,1.20
2022-07-29T23:40:00,pkn,1.20
2022-07-29T23:42:00,pkn,1.20
2022-07-29T23:44:00,pkn,1.20
2022-07-29T23:45:00,pkn,1.20
2022-07-29T23:47:00,pkn,1.20
2022-07-29T23:49:00,pkn,1.20
2022-07-29T23:51:00,pkn,2.40
2022-07-29T23:53:00,pkn,1.20
2022-07-29T23:55:00,pkn,1.20
2022-07-29T23:56:00,pkn,1.20
2022-07-29T23:57:00,pkn,1.20
2022-07-29T23:59:00,pkn,1.20
